Lid_Strength_Index
0 -0 -1 -1 -2 -2 -2 -2 -1 -2 -2 -2 -1 -1 -1 -1 -1 -1 -1 -1 -1 -1 -1 -1 -1 -1 -1
-1 1 1 0 -1 -1 -1 -1 -1 -1 -1 -1 -1 -1 -1 -1 -1 -1 -1 -1 -1 -1 -0 -0 -0 -1 -1
-0 2 2 1 -0 -0 -1 -0 -0 -1 -1 -0 -0 -1 -1 -1 -1 -1 -1 -0 -1 -1 -0 -0 -0 -0 -0
-0 1 1 0 -1 -1 -1 -1 -1 -1 -1 -1 0 0 -0 -1 -1 -1 -1 -1 -1 -0 0 0 1 0 0
1 1 1 0 -1 -1 -1 -1 -1 -1 -1 -1 -1 -1 -1 2 -1 -1 -1 -0 1 1 1 1 1 1 1
-0 1 0 0 -1 -1 -1 -1 -1 -1 -1 -1 -1 -1 -2 -1 -1 -1 -0 2 2 2 2 2 2 2 2
-0 -0 -0 -0 -1 -1 -1 -1 -1 -1 -1 -1 -1 -1 -1 -0 0 0 2 3 3 3 2 2 4 4 4
-0 -0 0 -0 -1 -1 -1 -1 -1 -1 -1 -1 -1 -0 0 1 1 2 4 5 3 3 4 5 5 6 5
1 0 0 -1 -1 -0 -1 -1 -1 -1 -1 -1 0 1 2 2 2 3 5 5 4 4 6 7 7 7 8
1 1 0 -1 -0 -1 -1 -1 -1 -1 -1 1 3 4 4 3 4 5 6 6 5 5 7 9 10 9 9
1 1 -0 -0 -0 0 -1 -1 -0 0 1 3 4 6 5 5 6 7 7 6 6 8 11 11 11 10 10
1 0 1 2 2 3 3 2 1 3 4 5 6 6 6 6 7 8 8 8 8 10 12 13 12 10 10
2 1 3 4 5 6 7 6 5 5 6 7 8 8 8 8 8 9 10 10 11 10 11 12 12 11 11
1 2 2 4 6 7 8 8 8 8 8 9 9 9 10 11 12 12 10 12 12 11 10 10 12 12 12
1 2 4 7 8 9 9 10 10 10 9 10 10 11 12 12 13 13 12 11 13 12 12 11 12 12 12
2 5 6 6 8 8 10 10 10 11 11 12 12 12 13 13 13 13 12 12 11 12 12 13 13 13 13